When you browse on this site, cookies collect data to enhance your experience and personalize the content and advertising you see.
Visit our Privacy Policy to learn more. By continuing to use the site, you agree to this use of cookies and data.
  • In Austria
  • List of Countries
  • For 7 days
  • Water Temperature
  • Satellite Maps
  • Weather Map
  • News
  • Weather Widgets
  • user-avatar
    Login

    Hourly Weather Novoe Selo

    Today, 16 February, Saturday

    Time Temperature Precipitation Wind Pressure Humidity
    00:00 -1°C° 0 mm 5 mps 741 mmHg 94%
    01:00 -1°C° 0 mm 4 mps 741 mmHg 95%
    02:00 0°C° 0 mm 3 mps 741 mmHg 94%
    03:00 0°C° 0 mm 3 mps 741 mmHg 95%
    04:00 0°C° 0 mm 3 mps 741 mmHg 95%
    05:00 0°C° 0 mm 3 mps 741 mmHg 96%
    06:00 0°C° 0 mm 3 mps 741 mmHg 96%
    07:00 0°C° 0 mm 3 mps 741 mmHg 96%
    08:00 0°C° 0 mm 3 mps 741 mmHg 95%
    09:00 0°C° 0 mm 3 mps 741 mmHg 95%
    10:00 +1°C° 0 mm 3 mps 741 mmHg 94%
    11:00 +1°C° 0 mm 3 mps 740 mmHg 93%
    12:00 0°C° 0 mm 4 mps 740 mmHg 92%
    13:00 0°C° 0 mm 4 mps 740 mmHg 91%
    14:00 0°C° 0 mm 4 mps 739 mmHg 90%
    15:00 0°C° 0 mm 4 mps 739 mmHg 89%
    16:00 0°C° 0 mm 4 mps 738 mmHg 87%
    17:00 -1°C° 0 mm 4 mps 738 mmHg 86%
    18:00 -1°C° 0 mm 4 mps 737 mmHg 84%
    19:00 -1°C° 0 mm 4 mps 737 mmHg 83%
    20:00 -1°C° 0 mm 4 mps 736 mmHg 81%
    21:00 -1°C° 0 mm 5 mps 736 mmHg 82%
    22:00 -1°C° 0 mm 5 mps 735 mmHg 82%
    23:00 -1°C° 0 mm 5 mps 735 mmHg 82%

    Tomorrow, 17 February, Sunday

    Time Temperature Precipitation Wind Pressure Humidity
    00:00 -1°C° 0 mm 5 mps 734 mmHg 83%
    01:00 -1°C° 0 mm 5 mps 734 mmHg 84%
    02:00 -1°C° 0 mm 5 mps 733 mmHg 85%
    03:00 -1°C° 0 mm 5 mps 733 mmHg 86%
    04:00 -2°C° 0 mm 5 mps 733 mmHg 87%
    05:00 -2°C° 0 mm 5 mps 732 mmHg 88%
    06:00 -1°C° 0 mm 5 mps 732 mmHg 88%
    07:00 -2°C° 0 mm 6 mps 732 mmHg 88%
    08:00 -2°C° 0 mm 6 mps 733 mmHg 87%
    09:00 -2°C° 0 mm 6 mps 733 mmHg 83%
    10:00 -2°C° 0 mm 6 mps 733 mmHg 80%
    11:00 -2°C° 0 mm 7 mps 733 mmHg 76%
    12:00 -2°C° 0 mm 7 mps 733 mmHg 74%
    13:00 -2°C° 0 mm 7 mps 733 mmHg 73%
    14:00 -2°C° 0 mm 8 mps 734 mmHg 71%
    15:00 -3°C° 0 mm 7 mps 734 mmHg 71%
    16:00 -3°C° 0 mm 7 mps 735 mmHg 70%
    17:00 -4°C° 0 mm 7 mps 735 mmHg 69%
    18:00 -4°C° 0 mm 7 mps 736 mmHg 70%
    19:00 -4°C° 0 mm 6 mps 737 mmHg 71%
    20:00 -5°C° 0 mm 6 mps 737 mmHg 71%
    21:00 -5°C° 0 mm 6 mps 738 mmHg 73%
    22:00 -6°C° 0 mm 6 mps 738 mmHg 74%
    23:00 -6°C° 0 mm 5 mps 739 mmHg 76%

    Day after tomorrow, 18 February, Monday

    Time Temperature Precipitation Wind Pressure Humidity
    00:00 -6°C° 0 mm 5 mps 740 mmHg 77%
    01:00 -7°C° 0 mm 5 mps 740 mmHg 77%
    02:00 -7°C° 0 mm 4 mps 741 mmHg 78%
    03:00 -7°C° 0 mm 4 mps 742 mmHg 78%
    04:00 -7°C° 0 mm 4 mps 742 mmHg 79%
    05:00 -8°C° 0 mm 4 mps 743 mmHg 80%
    06:00 -8°C° 0 mm 4 mps 744 mmHg 80%
    07:00 -7°C° 0 mm 3 mps 744 mmHg 81%
    08:00 -7°C° 0 mm 3 mps 745 mmHg 81%
    09:00 -7°C° 0 mm 3 mps 745 mmHg 79%
    10:00 -6°C° 0 mm 3 mps 746 mmHg 77%
    11:00 -5°C° 0 mm 2 mps 746 mmHg 74%
    12:00 -4°C° 0 mm 2 mps 746 mmHg 72%
    13:00 -4°C° 0 mm 2 mps 746 mmHg 70%
    14:00 -1°C° 0 mm 1 mps 746 mmHg 67%
    15:00 -2°C° 0 mm 1 mps 746 mmHg 72%
    16:00 -3°C° 0 mm 1 mps 746 mmHg 76%
    17:00 -3°C° 0 mm 1 mps 746 mmHg 81%
    18:00 -4°C° 0 mm 1 mps 746 mmHg 82%
    19:00 -4°C° 0 mm 1 mps 746 mmHg 84%
    20:00 -6°C° 0 mm 2 mps 746 mmHg 85%
    21:00 -6°C° 0 mm 2 mps 746 mmHg 83%
    22:00 -6°C° 0 mm 3 mps 745 mmHg 81%
    23:00 -6°C° 0 mm 3 mps 745 mmHg 78%

    19 February, Tuesday

    Time Temperature Precipitation Wind Pressure Humidity
    00:00 -7°C° 0 mm 4 mps 745 mmHg 76%
    01:00 -5°C° 0 mm 4 mps 744 mmHg 74%
    02:00 -6°C° 0 mm 5 mps 744 mmHg 72%
    03:00 -6°C° 0 mm 5 mps 743 mmHg 72%
    04:00 -6°C° 0 mm 5 mps 743 mmHg 72%
    05:00 -6°C° 0 mm 5 mps 742 mmHg 71%
    06:00 -6°C° 0 mm 5 mps 742 mmHg 73%
    07:00 -6°C° 0 mm 5 mps 742 mmHg 75%
    08:00 -6°C° 0 mm 5 mps 741 mmHg 77%
    09:00 -5°C° 0 mm 5 mps 741 mmHg 76%
    10:00 -4°C° 0 mm 5 mps 741 mmHg 76%
    11:00 -2°C° 0 mm 5 mps 740 mmHg 75%
    12:00 -1°C° 0 mm 5 mps 740 mmHg 75%
    13:00 -1°C° 0 mm 5 mps 739 mmHg 74%
    14:00 -1°C° 0 mm 6 mps 738 mmHg 74%
    15:00 -2°C° 0 mm 6 mps 738 mmHg 73%
    16:00 -1°C° 0 mm 5 mps 737 mmHg 72%
    17:00 -2°C° 0 mm 5 mps 737 mmHg 71%
    18:00 -3°C° 0 mm 6 mps 736 mmHg 72%
    19:00 -3°C° 0 mm 6 mps 735 mmHg 74%
    20:00 -4°C° 0 mm 6 mps 735 mmHg 75%
    21:00 -4°C° 0 mm 6 mps 734 mmHg 77%
    22:00 -3°C° 0 mm 6 mps 734 mmHg 78%
    23:00 -3°C° 0 mm 6 mps 733 mmHg 80%

    20 February, Wednesday

    Time Temperature Precipitation Wind Pressure Humidity
    00:00 -3°C° 0.2 mm 6 mps 732 mmHg 83%
    01:00 -2°C° 0.2 mm 6 mps 732 mmHg 86%
    02:00 -2°C° 0.2 mm 6 mps 731 mmHg 88%
    03:00 -1°C° 0.2 mm 5 mps 731 mmHg 89%
    04:00 0°C° 0.2 mm 5 mps 731 mmHg 91%
    05:00 0°C° 0.2 mm 5 mps 731 mmHg 92%
    06:00 -1°C° 0.1 mm 4 mps 730 mmHg 92%
    07:00 -1°C° 0.1 mm 4 mps 730 mmHg 92%
    08:00 -1°C° 0.1 mm 4 mps 730 mmHg 92%
    09:00 -1°C° 0.3 mm 4 mps 730 mmHg 91%
    10:00 0°C° 0.3 mm 4 mps 730 mmHg 89%
    11:00 0°C° 0.3 mm 4 mps 730 mmHg 88%
    12:00 0°C° 0.4 mm 5 mps 729 mmHg 87%
    13:00 0°C° 0.4 mm 5 mps 729 mmHg 86%
    14:00 0°C° 0.4 mm 5 mps 729 mmHg 86%
    15:00 0°C° 0.3 mm 4 mps 728 mmHg 87%
    16:00 0°C° 0.3 mm 4 mps 728 mmHg 88%
    17:00 -1°C° 0.3 mm 4 mps 728 mmHg 90%
    18:00 -1°C° 0.5 mm 4 mps 728 mmHg 90%
    19:00 -1°C° 0.5 mm 4 mps 728 mmHg 91%
    20:00 -1°C° 0.5 mm 4 mps 727 mmHg 92%
    21:00 -1°C° 0.2 mm 4 mps 728 mmHg 91%
    22:00 -1°C° 0.2 mm 4 mps 728 mmHg 91%
    23:00 -1°C° 0.2 mm 5 mps 728 mmHg 90%

    21 February, Thursday

    Time Temperature Precipitation Wind Pressure Humidity
    00:00 -2°C° 0.3 mm 5 mps 728 mmHg 86%
    01:00 -5°C° 0.3 mm 6 mps 729 mmHg 82%
    02:00 -7°C° 0.3 mm 7 mps 729 mmHg 78%
    03:00 -8°C° 0.1 mm 7 mps 730 mmHg 77%
    04:00 -9°C° 0.1 mm 7 mps 731 mmHg 75%
    05:00 -10°C° 0.1 mm 6 mps 731 mmHg 74%
    06:00 -10°C° 0.1 mm 6 mps 732 mmHg 74%
    07:00 -10°C° 0.1 mm 6 mps 732 mmHg 75%
    08:00 -10°C° 0.1 mm 6 mps 733 mmHg 75%
    09:00 -11°C° 0.1 mm 7 mps 734 mmHg 75%
    10:00 -11°C° 0.1 mm 7 mps 734 mmHg 75%
    11:00 -11°C° 0.1 mm 7 mps 734 mmHg 75%
    12:00 -11°C° 0.1 mm 7 mps 735 mmHg 73%
    13:00 -11°C° 0.1 mm 7 mps 736 mmHg 72%
    14:00 -11°C° 0.1 mm 7 mps 736 mmHg 71%
    15:00 -11°C° 0.1 mm 7 mps 737 mmHg 72%
    16:00 -12°C° 0.1 mm 7 mps 738 mmHg 73%
    17:00 -12°C° 0.1 mm 7 mps 739 mmHg 74%
    18:00 -12°C° 0.1 mm 7 mps 739 mmHg 74%
    19:00 -12°C° 0.1 mm 6 mps 740 mmHg 74%
    20:00 -12°C° 0.1 mm 6 mps 741 mmHg 75%
    21:00 -12°C° 0 mm 6 mps 742 mmHg 74%
    22:00 -14°C° 0 mm 6 mps 742 mmHg 74%
    23:00 -14°C° 0 mm 6 mps 743 mmHg 74%
    Show more